User: anonymous   Login
Location: Campestrin
(46.4667°N, 11.7167°E)
Time: 15:49:20
(UTC+00:00)
Language:

Cosmos 1953 Rocket - Orbit

View from above orbital plane
View from above orbital plane
View from above satellite
View from above satellite

Ground track
Ground track

The orbit data is extracted from the following two-line orbital elements,

1 19211U 88050B   21168.67974811  .00000083  00000-0  72852-5 0  9996
2 19211  82.5269 275.3564 0021338 345.1518  14.9067 14.83114290762324
Epoch (UTC): 17 June 2021 16:18:50
Eccentricity: 0.0021338
inclination: 82.5269°
perigee height: 604 km
apogee height: 634 km
right ascension of ascending node: 275.3564°
argument of perigee: 345.1518°
revolutions per day: 14.83114290
mean anomaly at epoch: 14.9067°
orbit number at epoch: 76232

The dashed part of the orbit path shows where the satellite is in the earth's shadow,  

DLR